Istanbul, Turkey

1:34 AM +03 on March 27, 2017 (GMT +0300)
Ataturk

Weather History for LTBA - September, 2013

Change the Weather History Date:

Monday, September 30, 2013

  Actual Average Record
Temperature  
Mean Temperature 75 °F -  
Max Temperature 85 °F 66 °F 85 °F (2013)
Min Temperature 65 °F 55 °F 54 °F (2014)
Cooling Degree Days 10    
Growing Degree Days 25 (Base 50)    
Moisture  
Dew Point 56 °F    
Average Humidity 58    
Maximum Humidity 78    
Minimum Humidity 20    
Precipitation  
Precipitation 0.00 in - - ()
Sea Level Pressure  
Sea Level Pressure 29.80 in    
Wind  
Wind Speed 6 mph ()    
Max Wind Speed 12 mph    
Max Gust Speed -    
Visibility 6.2 miles    
Events      
Averages and records for this station are not official NWS values.
T = Trace of Precipitation, MM = Missing Value Source: Averaged Metar Reports

Daily Weather History Graph

Daily Weather History Graph

Search for Another Location

Airport or City:

Trip Planner

Search our weather history database for the weather conditions in past years. The results will help you decide how hot, cold, wet, or windy it might be!

Date:

Astronomy

Sep. 30, 2013 Rise Set
Actual Time 7:00 AM EEST 6:48 PM EEST
Civil Twilight 6:32 AM EEST 7:15 PM EEST
Nautical Twilight 6:00 AM EEST 7:47 PM EEST
Astronomical Twilight 5:28 AM EEST 8:19 PM EEST
Moon 2:16 AM EEST (9/30) 4:09 PM EEST (9/30)
Length of Visible Light 12h 43m
Length of Day
11h 48m
Waning Crescent, 21% of the Moon is Illuminated
Sep 30
Waning Crescent
Oct 5
New
Oct 12
First Quarter
Oct 19
Full
Oct 27
Last Quarter

Hourly Weather History & Observations

Time (EEST) Temp. Heat Index Dew Point Humidity Pressure Visibility Wind Dir Wind Speed Gust Speed Precip Events Conditions
12:20 AM 66.2 °F - 59.0 °F 78% 29.89 in - North 9.2 mph - N/A   Clear
12:50 AM 68.0 °F - 59.0 °F 73% 29.89 in - Variable 5.8 mph - N/A   Clear
1:20 AM 68.0 °F - 59.0 °F 73% 29.89 in - Variable 8.1 mph - N/A   Clear
1:50 AM 68.0 °F - 59.0 °F 73% 29.89 in - ENE 6.9 mph - N/A   Clear
2:20 AM 68.0 °F - 59.0 °F 73% 29.89 in - ENE 6.9 mph - N/A   Clear
2:50 AM 68.0 °F - 59.0 °F 73% 29.89 in - NE 5.8 mph - N/A   Clear
3:00 AM 67 °F - 59 °F 68% 29.89 in 6 mi NE 5.8 mph - -  
3:20 AM 68.0 °F - 59.0 °F 73% 29.89 in - NE 4.6 mph - N/A   Clear
3:50 AM 66.2 °F - 59.0 °F 78% 29.89 in - NNE 4.6 mph - N/A   Clear
4:20 AM 66.2 °F - 59.0 °F 78% 29.89 in - NNE 4.6 mph - N/A   Clear
4:50 AM 66.2 °F - 59.0 °F 78% 29.89 in - North 4.6 mph - N/A   Clear
5:20 AM 66.2 °F - 59.0 °F 78% 29.89 in - NNE 6.9 mph - N/A   Clear
5:50 AM 66.2 °F - 59.0 °F 78% 29.89 in - NNE 4.6 mph - N/A   Clear
6:20 AM 66.2 °F - 59.0 °F 78% 29.86 in - NE 6.9 mph - N/A   Clear
6:50 AM 66.2 °F - 59.0 °F 78% 29.86 in - East 5.8 mph - N/A   Clear
7:20 AM 66.2 °F - 59.0 °F 78% 29.86 in - East 5.8 mph - N/A   Clear
7:50 AM 68.0 °F - 59.0 °F 73% 29.86 in - East 6.9 mph - N/A   Clear
8:20 AM 68.0 °F - 59.0 °F 73% 29.86 in - East 8.1 mph - N/A   Clear
8:50 AM 69.8 °F - 59.0 °F 68% 29.86 in - East 8.1 mph - N/A   Clear
9:00 AM 70 °F - 59 °F 59% 29.86 in 6 mi East 8.1 mph - -   Partly Cloudy
9:20 AM 69.8 °F - 59.0 °F 68% 29.86 in - ESE 8.1 mph - N/A   Clear
9:50 AM 71.6 °F - 59.0 °F 64% 29.86 in - East 8.1 mph - N/A   Clear
10:20 AM 69.8 °F - 57.2 °F 64% 29.86 in - East 6.9 mph - N/A   Clear
10:50 AM 71.6 °F - 57.2 °F 60% 29.86 in - East 5.8 mph - N/A   Clear
11:20 AM 73.4 °F - 55.4 °F 53% 29.83 in - East 5.8 mph - N/A   Clear
11:50 AM 75.2 °F - 53.6 °F 47% 29.83 in - SE 8.1 mph - N/A   Clear
12:20 PM 77.0 °F - 51.8 °F 41% 29.83 in - SE 5.8 mph - N/A   Clear
12:50 PM 78.8 °F - 50.0 °F 36% 29.83 in - ESE 3.5 mph - N/A   Clear
1:20 PM 80.6 °F - 48.2 °F 32% 29.80 in - Variable 4.6 mph - N/A   Clear
1:50 PM 80.6 °F - 46.4 °F 30% 29.80 in - WSW 3.5 mph - N/A   Clear
2:20 PM 82.4 °F - 48.2 °F 30% 29.77 in 6.2 mi SSW 3.5 mph - N/A   Scattered Clouds
2:50 PM 82.4 °F - 46.4 °F 28% 29.77 in 6.2 mi West 3.5 mph - N/A   Mostly Cloudy
3:00 PM 82 °F - 47 °F 20% 29.78 in 6 mi West 3.5 mph - -   Partly Cloudy
3:20 PM 82.4 °F - 48.2 °F 30% 29.77 in 6.2 mi Variable 4.6 mph - N/A   Mostly Cloudy
3:50 PM 82.4 °F - 48.2 °F 30% 29.77 in 6.2 mi West 4.6 mph - N/A   Mostly Cloudy
4:20 PM 84.2 °F - 48.2 °F 29% 29.74 in 6.2 mi West 5.8 mph - N/A   Mostly Cloudy
4:50 PM 84.2 °F - 46.4 °F 27% 29.74 in 6.2 mi NNW 5.8 mph - N/A   Mostly Cloudy
5:20 PM 84.2 °F - 46.4 °F 27% 29.71 in 6.2 mi NNW 5.8 mph - N/A   Mostly Cloudy
5:50 PM 84.2 °F - 46.4 °F 27% 29.71 in 6.2 mi NNW 6.9 mph - N/A   Mostly Cloudy
6:20 PM 80.6 °F 80.8 °F 57.2 °F 45% 29.71 in 6.2 mi NE 8.1 mph - N/A   Mostly Cloudy
6:50 PM 77.0 °F - 59.0 °F 54% 29.71 in 6.2 mi NNE 9.2 mph - N/A   Mostly Cloudy
7:20 PM 73.4 °F - 59.0 °F 61% 29.71 in 6.2 mi NNE 11.5 mph - N/A   Scattered Clouds
7:50 PM 73.4 °F - 59.0 °F 61% 29.71 in 6.2 mi NNE 9.2 mph - N/A   Mostly Cloudy
8:20 PM 71.6 °F - 59.0 °F 64% 29.71 in 6.2 mi NNE 10.4 mph - N/A   Mostly Cloudy
8:50 PM 71.6 °F - 59.0 °F 64% 29.71 in 6.2 mi NE 10.4 mph - N/A   Mostly Cloudy
9:00 PM 72 °F - 60 °F 56% 29.71 in 6 mi NE 10.4 mph - -   Scattered Clouds
9:20 PM 71.6 °F - 59.0 °F 64% 29.71 in 6.2 mi NE 8.1 mph - N/A   Mostly Cloudy
9:50 PM 71.6 °F - 59.0 °F 64% 29.71 in 6.2 mi ENE 8.1 mph - N/A   Mostly Cloudy
10:20 PM 71.6 °F - 59.0 °F 64% 29.71 in 6.2 mi NE 4.6 mph - N/A   Mostly Cloudy
10:50 PM 71.6 °F - 59.0 °F 64% 29.68 in 6.2 mi NNE 5.8 mph - N/A   Mostly Cloudy
11:20 PM 71.6 °F - 59.0 °F 64% 29.68 in 6.2 mi Variable 3.5 mph - N/A   Mostly Cloudy
11:50 PM 71.6 °F - 59.0 °F 64% 29.68 in 6.2 mi NE 4.6 mph - N/A   Mostly Cloudy